Terminal Aerodrome Forecast
Issued by NWS

Home | Current Version | Previous Version | Text Only | Print | Product List | Glossary On
Versions: 1 2 3 4 5 6 7 8 9 10 11 12 13 14 15 16 17 18 19 20 21 22 23 24 25 26 27 28 29 30 31 32 33 34 35 36 37 38 39 40 41 42 43 44 45 46 47 48 49 50
000
FTUS41 KCTP 291124
TAFBFD
TAF
KBFD 291124Z 2912/3012 09003KT P6SM SCT250
     FM291500 16007KT P6SM SCT035
     FM291900 17008KT P6SM VCSH BKN040 BKN090
     FM292100 18006KT P6SM VCTS BKN035CB BKN110
     FM300400 18005KT 5SM BR BKN090=

USA.gov is the U.S. government's official web portal to all federal, state and local government web resources and services.